DW7898 Weather Reports


Display with metric or nautical units.
time (UTC)temp
F
wind
direction
speed
MPH
gust
MPH
rain 1hr
in
rain 24hr
in
rain mn
in
humidity
%
barometer
mb
20240301012413 50 59 0.0 2.0 0.01 0.13 0.00 85 1009.2
20240301011420 50 60 0.0 4.0 0.01 0.13 0.00 85 1009.2
20240301010424 50 26 1.0 4.0 0.02 0.13 0.00 85 1009.1
20240301004405 51 348 3.0 7.0 0.06 0.13 0.00 85 1009.5
20240301003359 51 336 4.0 6.0 0.09 0.13 0.00 85 1009.6
20240301002405 51 314 2.0 4.0 0.12 0.13 0.00 85 1009.7
20240301001407 51 319 3.0 4.0 0.13 0.13 0.00 84 1009.7
20240301000417 51 225 0.0 5.0 0.12 0.12 0.00 83 1009.5
20240229235402 51 221 2.0 6.0 0.10 0.10 0.00 81 1009.7
20240229234403 53 212 3.0 5.0 0.08 0.08 0.00 77 1010.0
20240229233353 54 276 3.0 5.0 0.03 0.03 0.00 72 1009.9
20240229232408 56 218 5.0 6.0 0.02 0.02 0.00 68 1009.7
20240229231355 56 0 0.0 3.0 0.00 0.00 0.00 67 1009.6
20240229230417 55 62 3.0 6.0 0.00 0.00 0.00 67 1009.4
20240229225413 55 21 4.0 8.0 0.00 0.00 0.00 70 1009.1
20240229224345 55 42 6.0 10.0 0.00 0.00 0.00 67 1009.4
20240229223342 54 49 4.0 7.0 0.00 0.00 0.00 63 1009.5
20240229222350 54 34 2.0 6.0 0.00 0.00 0.00 61 1009.7
20240229221356 54 50 4.0 6.0 0.00 0.00 0.00 61 1009.8
20240229220351 54 42 3.0 5.0 0.00 0.00 0.00 61 1009.8
20240229215356 54 8 1.0 6.0 0.00 0.00 0.00 61 1009.9
20240229214340 54 18 4.0 7.0 0.00 0.00 0.00 62 1009.9
20240229213352 54 24 3.0 5.0 0.00 0.00 0.00 65 1010.1
20240229212357 54 39 1.0 7.0 0.00 0.00 0.00 65 1009.9
20240229211357 54 49 4.0 8.0 0.00 0.00 0.00 66 1009.9
20240229210338 55 40 3.0 8.0 0.00 0.00 0.00 66 1009.8
20240229205338 55 37 1.0 4.0 0.00 0.00 0.00 66 1009.8
20240229204353 55 37 1.0 5.0 0.00 0.00 0.00 67 1009.9
20240229203338 55 64 3.0 5.0 0.00 0.00 0.00 67 1009.7
20240229202337 56 35 3.0 5.0 0.00 0.00 0.00 68 1009.5
20240229201338 56 29 2.0 4.0 0.00 0.00 0.00 68 1009.7
20240229200341 56 21 1.0 5.0 0.00 0.00 0.00 68 1009.6
20240229195343 56 51 2.0 4.0 0.00 0.00 0.00 68 1009.8
20240229194355 56 60 2.0 3.0 0.00 0.00 0.00 67 1009.7
20240229193340 57 60 1.0 3.0 0.00 0.00 0.00 66 1009.6
20240229192344 57 52 0.0 3.0 0.00 0.00 0.00 64 1009.8
20240229191344 57 52 2.0 4.0 0.00 0.00 0.00 63 1009.7
20240229190356 58 71 1.0 4.0 0.00 0.00 0.00 62 1009.7
20240229185342 58 169 0.0 2.0 0.00 0.00 0.00 62 1009.4
20240229184347 58 166 1.0 2.0 0.00 0.00 0.00 63 1009.4
20240229183357 58 144 0.0 3.0 0.00 0.00 0.00 63 1009.5
20240229182345 57 138 1.0 2.0 0.00 0.00 0.00 63 1009.4
20240229181356 57 138 0.0 3.0 0.00 0.00 0.00 63 1009.2
20240229180356 58 138 2.0 4.0 0.00 0.00 0.00 63 1009.2
20240229175347 58 169 3.0 7.0 0.00 0.00 0.00 62 1009.1
20240229174358 58 139 4.0 9.0 0.00 0.00 0.00 60 1009.1
20240229173349 59 134 3.0 9.0 0.00 0.00 0.00 58 1009.0
20240229172343 59 140 3.0 7.0 0.00 0.00 0.00 58 1009.0
20240229171357 59 130 5.0 9.0 0.00 0.00 0.00 58 1009.0
20240229170345 59 156 4.0 7.0 0.00 0.00 0.00 56 1009.1
20240229165337 60 101 2.0 5.0 0.00 0.00 0.00 55 1009.1
20240229164341 60 210 2.0 6.0 0.00 0.00 0.00 55 1009.1
20240229163340 60 244 3.0 9.0 0.00 0.00 0.00 54 1009.2
20240229162349 61 134 5.0 15.0 0.00 0.00 0.00 51 1009.1
20240229161338 62 156 8.0 13.0 0.00 0.00 0.00 45 1009.2
20240229160343 63 118 5.0 11.0 0.00 0.00 0.00 42 1009.3
20240229155348 64 169 4.0 10.0 0.00 0.00 0.00 41 1009.2
20240229154344 65 175 5.0 10.0 0.00 0.00 0.00 38 1009.5
20240229153357 66 132 4.0 9.0 0.00 0.00 0.00 36 1009.6
20240229152341 67 119 5.0 10.0 0.00 0.00 0.00 36 1009.7
20240229151346 66 191 2.0 6.0 0.00 0.00 0.00 37 1009.8
20240229150340 66 206 2.0 10.0 0.00 0.00 0.00 36 1009.9
20240229145339 66 224 2.0 7.0 0.00 0.00 0.00 37 1010.0
20240229144354 66 245 2.0 8.0 0.00 0.00 0.00 37 1010.4
20240229143340 65 214 5.0 11.0 0.00 0.00 0.00 38 1010.5
20240229142345 64 163 3.0 11.0 0.00 0.00 0.00 40 1010.5
20240229141352 65 128 5.0 10.0 0.00 0.00 0.00 39 1010.6
20240229140348 66 222 2.0 8.0 0.00 0.00 0.00 36 1010.8
20240229135338 66 255 1.0 6.0 0.00 0.00 0.00 35 1010.9
20240229134352 65 193 3.0 10.0 0.00 0.00 0.00 35 1011.0
20240229133341 65 254 3.0 12.0 0.00 0.00 0.00 35 1011.3
20240229132343 65 210 8.0 11.0 0.00 0.00 0.00 36 1011.5
20240229131355 66 275 3.0 10.0 0.00 0.00 0.00 33 1011.6
20240229130345 65 224 5.0 9.0 0.00 0.00 0.00 33 1011.9
20240229125337 65 263 7.0 10.0 0.00 0.00 0.00 33 1012.1
20240229124345 65 249 9.0 12.0 0.00 0.00 0.00 31 1012.2
20240229123339 65 199 6.0 9.0 0.00 0.00 0.00 30 1012.6
20240229122336 64 273 5.0 17.0 0.00 0.00 0.00 29 1012.7
20240229121347 64 228 3.0 8.0 0.00 0.00 0.00 30 1013.0
20240229120353 63 228 3.0 9.0 0.00 0.00 0.00 33 1013.4
20240229115344 62 254 3.0 6.0 0.00 0.00 0.00 35 1013.5
20240229114342 62 256 1.0 5.0 0.00 0.00 0.00 35 1013.8
20240229113353 61 202 2.0 7.0 0.00 0.00 0.00 36 1014.0
20240229112354 61 261 3.0 7.0 0.00 0.00 0.00 37 1014.1
20240229111348 60 266 2.0 6.0 0.00 0.00 0.00 38 1014.2
20240229110337 59 225 2.0 8.0 0.00 0.00 0.00 41 1014.3
20240229105346 58 248 1.0 5.0 0.00 0.00 0.00 42 1014.5
20240229104342 57 254 1.0 6.0 0.00 0.00 0.00 43 1014.5
20240229103337 57 224 1.0 6.0 0.00 0.00 0.00 45 1014.7
20240229102337 57 247 2.0 5.0 0.00 0.00 0.00 45 1014.8
20240229101355 56 248 3.0 7.0 0.00 0.00 0.00 45 1015.0
20240229100342 56 240 2.0 3.0 0.00 0.00 0.00 46 1015.1
20240229095353 55 248 2.0 5.0 0.00 0.00 0.00 47 1015.1
20240229094339 53 60 0.0 3.0 0.00 0.00 0.00 52 1015.1
20240229093344 53 58 0.0 2.0 0.00 0.00 0.00 54 1015.2
20240229092346 52 59 0.0 2.0 0.00 0.00 0.00 56 1015.3
20240229091354 51 58 1.0 4.0 0.00 0.00 0.00 58 1015.4
20240229090340 50 63 0.0 4.0 0.00 0.00 0.00 60 1015.4
20240229085346 49 57 1.0 3.0 0.00 0.00 0.00 61 1015.5
20240229084344 48 56 0.0 3.0 0.00 0.00 0.00 63 1015.6
20240229083356 47 58 0.0 3.0 0.00 0.00 0.00 66 1015.7
20240229082351 46 56 0.0 2.0 0.00 0.00 0.00 69 1015.6
20240229081349 45 56 0.0 1.0 0.00 0.00 0.00 70 1015.5
20240229080358 45 56 0.0 2.0 0.00 0.00 0.00 72 1015.6
20240229075343 44 56 1.0 2.0 0.00 0.00 0.00 73 1015.5
20240229074344 43 56 1.0 3.0 0.00 0.00 0.00 74 1015.5
20240229073356 41 56 0.0 1.0 0.00 0.00 0.00 77 1015.3
20240229072347 40 56 0.0 1.0 0.00 0.00 0.00 76 1015.3
20240229071338 40 56 1.0 2.0 0.00 0.00 0.00 77 1015.2
20240229070348 40 56 0.0 2.0 0.00 0.00 0.00 77 1015.2
20240229065341 39 56 0.0 1.0 0.00 0.00 0.00 77 1015.1
20240229064353 39 56 0.0 1.0 0.00 0.00 0.00 77 1015.0
20240229063620 39 56 0.0 2.0 0.00 0.00 0.00 76 1015.0
20240229063348 39 56 0.0 2.0 0.00 0.00 0.00 77 1015.0
20240229062340 40 56 2.0 3.0 0.00 0.00 0.00 76 1014.9
20240229061416 40 57 0.0 0.0 0.00 0.00 0.00 76 1015.0
20240229060340 40 57 1.0 0.0 0.00 0.00 0.00 76 1015.1
20240229055347 40 56 0.0 0.0 0.00 0.00 0.00 76 1014.9
20240229054351 40 56 0.0 0.0 0.00 0.00 0.00 76 1015.0
20240229053352 40 56 0.0 0.0 0.00 0.00 0.00 76 1015.0
20240229052354 40 56 2.0 0.0 0.00 0.00 0.00 76 1015.0
20240229051337 40 57 2.0 0.0 0.00 0.00 0.00 76 1015.0
20240229050344 40 57 0.0 0.0 0.00 0.00 0.00 76 1015.0
20240229045349 40 57 0.0 0.0 0.00 0.00 0.00 76 1015.0
20240229044337 40 58 1.0 0.0 0.00 0.00 0.00 75 1014.9
20240229043341 40 58 0.0 0.0 0.00 0.00 0.00 75 1014.9
20240229042342 40 59 0.0 0.0 0.00 0.00 0.00 75 1014.9
20240229041348 41 59 0.0 0.0 0.00 0.00 0.00 74 1014.9
20240229040350 41 59 0.0 0.0 0.00 0.00 0.00 74 1015.0
20240229035354 41 59 0.0 0.0 0.00 0.00 0.00 74 1015.0
20240229034346 41 59 0.0 0.0 0.00 0.00 0.00 74 1015.0
20240229033354 41 59 0.0 0.0 0.00 0.00 0.00 73 1015.2
20240229032335 41 59 0.0 0.0 0.00 0.00 0.00 73 1015.2
20240229031338 42 59 0.0 0.0 0.00 0.00 0.00 72 1015.2
20240229030346 42 59 1.0 0.0 0.00 0.00 0.00 72 1015.2
20240229025354 42 60 0.0 0.0 0.00 0.00 0.00 72 1015.3
20240229024343 42 60 0.0 0.0 0.00 0.00 0.00 72 1015.3
20240229023351 42 40 4.0 0.0 0.00 0.00 0.00 72 1015.4
20240229022355 42 40 0.0 0.0 0.00 0.00 0.00 72 1015.5
20240229021339 42 40 1.0 0.0 0.00 0.00 0.00 71 1015.7
20240229020346 42 40 0.0 0.0 0.00 0.00 0.00 70 1015.6
20240229015350 43 40 1.0 0.0 0.00 0.00 0.00 70 1015.8
20240229014340 43 40 0.0 0.0 0.00 0.00 0.00 70 1015.9
20240229013344 44 40 0.0 0.0 0.00 0.00 0.00 69 1016.1